This is the latest recevied weather packets stored in our database for station/object KC9NPJ-13. If no packets are shown the sender has not sent any weather packets the latest 1 day(s).
| Time | Temp. | Humidity | Pressure | Rain* | Wind** | Luminosity | Snow |
|---|---|---|---|---|---|---|---|
| 1778023439 | 9.44° C | 94% | 1008.9 hPa | 1.27 mm | 0.89 m/s, 41° | - | - |
| 1778023139 | 10° C | 94% | 1008.8 hPa | 2.03 mm | 0.45 m/s, 42° | - | - |
| 1778022839 | 10° C | 94% | 1009 hPa | 2.03 mm | 0.45 m/s, 86° | - | - |
| 1778022539 | 10° C | 95% | 1009 hPa | 1.78 mm | 0 m/s | - | - |
| 1778022239 | 10° C | 95% | 1009.1 hPa | 2.03 mm | 0 m/s | - | - |
| 1778021939 | 10° C | 94% | 1009.4 hPa | 2.03 mm | 0.45 m/s, 16° | - | - |
| 1778021639 | 10° C | 94% | 1009.6 hPa | 2.03 mm | 0.45 m/s, 96° | - | - |
| 1778021339 | 10° C | 94% | 1009.5 hPa | 2.03 mm | 0.45 m/s, 338° | - | - |
| 1778021039 | 9.44° C | 94% | 1009.4 hPa | 2.03 mm | 0.45 m/s, 354° | - | - |
| 1778020739 | 9.44° C | 94% | 1009.4 hPa | 1.78 mm | 0.45 m/s, 128° | - | - |
| 1778020439 | 9.44° C | 94% | 1009.5 hPa | 1.52 mm | 0.89 m/s, 0° | - | - |
| 1778020139 | 10° C | 94% | 1009.4 hPa | 1.27 mm | 0.89 m/s, 119° | - | - |
| 1778019839 | 9.44° C | 94% | 1009.4 hPa | 1.02 mm | 0.45 m/s, 342° | - | - |
| 1778019539 | 10° C | 94% | 1009.3 hPa | 0.25 mm | 0.45 m/s, 115° | - | - |
| 1778019239 | 10° C | 94% | 1009.2 hPa | 0.25 mm | 0.45 m/s, 110° | - | - |
| 1778018939 | 10° C | 94% | 1009.3 hPa | 0.25 mm | 0.45 m/s, 349° | - | - |
| 1778018639 | 10° C | 93% | 1009.3 hPa | 0 mm | 0.45 m/s, 143° | - | - |
| 1778018339 | 10° C | 93% | 1009.5 hPa | 0 mm | 0.89 m/s, 25° | - | - |
| 1778018040 | 10° C | 93% | 1009.6 hPa | 0 mm | 0.89 m/s, 96° | - | - |
| 1778017740 | 10° C | 93% | 1009.6 hPa | 0.25 mm | 0.89 m/s, 356° | - | - |
| 1778017439 | 10° C | 93% | 1009.5 hPa | 0.25 mm | 0.45 m/s, 342° | - | - |
| 1778017140 | 10° C | 93% | 1009.4 hPa | 0.25 mm | 0.45 m/s, 358° | - | - |
| 1778016840 | 10° C | 94% | 1009.4 hPa | 0.25 mm | 0.45 m/s, 342° | - | - |
| 1778016540 | 10° C | 93% | 1009.3 hPa | 0.25 mm | 0.89 m/s, 184° | - | - |
| 1778016240 | 10° C | 93% | 1009.3 hPa | 0.51 mm | 1.34 m/s, 333° | - | - |
* Rain latest hour (hover to see other rain measurements)
** Current wind speed in m/s (hover to see current wind gust speed)